Preview of NWS' New Version of Forecast
This preview is not operational and should not be used for support decisions.

Regional Weather Roundup (RWR)

Issued by National Weather Service (NWS)

                            
000
ASUS43 KMKX 230810
RWRWI 

WISCONSIN REGIONAL WEATHER ROUNDUP
NATIONAL WEATHER SERVICE MILWAUKEE/SULLIVAN WI
200 AM CST SAT FEB 23 2019

NOTE: "FAIR" INDICATES FEW OR NO CLOUDS BELOW 12,000 FEET WITH NO
SIGNIFICANT WEATHER AND/OR OBSTRUCTIONS TO VISIBILITY.

WIZ001-002-006>008-014>016-023>028-230900-
NORTHWEST WISCONSIN
  
CITY           SKY/WX    TMP DP  RH WIND       PRES   REMARKS
SUPERIOR ARPT  CLOUDY    24  20  86 NE7       30.21F WCI  15          
ASHLAND        LGT SNOW  26  21  81 NE7       30.23F WCI  18          
HAYWARD        CLOUDY    26  22  84 VRB6      30.17F WCI  19          
SIREN          CLOUDY    26  20  79 CALM      30.15F                  
CUMBERLAND     CLOUDY    27  23  86 CALM      30.13S                  
RICE LAKE      CLOUDY    29  22  74 SE6       30.15S WCI  23          
CHETEK         CLOUDY    26  24  90 SE5       30.15S WCI  21          
LADYSMITH      CLOUDY    27  24  89 E9        30.18F WCI  18          
EAU CLAIRE     CLOUDY    30  18  60 SE10      30.16R WCI  21          
MENOMONIE      CLOUDY    25  17  73 NE3       30.17R                  
NEW RICHMOND   CLOUDY    28  19  67 SE8       30.14F WCI  20          
OSCEOLA        CLOUDY    28  22  76 E5        30.16S WCI  23          
$$
 
WIZ003>005-009-010-017-018-230900-
NORTH CENTRAL WISCONSIN
  
CITY           SKY/WX    TMP DP  RH WIND       PRES   REMARKS
MANITOWISH WTR NOT AVBL                                               
ARBOR VITAE    LGT SNOW  26  21  84 E5        30.21F WCI  20          
WOODRUFF       LGT SNOW  26  21  84 E5        30.21F WCI  20          
RHINELANDER    LGT SNOW  25  19  78 E5        30.22F WCI  19          
EAGLE RIVER    LGT SNOW  24  19  78 CALM      30.21F                  
LAND O LAKES   CLOUDY    24  20  83 CALM      30.23S                  
PHILLIPS       FLURRIES  24  23  95 E5        30.17F WCI  18          
TOMAHAWK       CLOUDY    24  20  86 CALM      30.20F                  
MEDFORD        CLOUDY    24  20  85 NE10      30.15F WCI  14          
MERRILL        CLOUDY    27  18  69 CALM      30.20S                  
$$
 
WIZ029-030-035-036-043>047-230900-
CENTRAL WISCONSIN
  
CITY           SKY/WX    TMP DP  RH WIND       PRES   REMARKS
WAUSAU         MOCLDY    27  16  63 E7        30.18  WCI  19          
MOSINEE        CLOUDY    28  19  69 E10       30.20F WCI  19          
MARSHFIELD     CLOUDY    27  18  69 SE13      30.19  WCI  16          
STEVENS POINT  CLOUDY    26  15  65 SE6       30.24R WCI  19          
WAUPACA        CLOUDY    30  20  65 E3        30.25S                  
WAUTOMA        CLOUDY    28  21  75 E6        30.23F WCI  22          
WISC RAPIDS    CLOUDY    28  16  60 E6        30.23R WCI  22          
CAMP DOUGLAS   FAIR      29  20  68 NE5       30.17F WCI  24          
$$
 
WIZ011>013-019>022-031-037>040-048>050-230900-
NORTHEAST WISCONSIN
  
CITY           SKY/WX    TMP DP  RH WIND       PRES   REMARKS
ANTIGO         MOCLDY    24  17  75 E6        30.21F WCI  17          
SHAWANO        CLOUDY    26  19  72 E6        30.26F WCI  20          
OCONTO         CLOUDY    24  18  79 N3        30.29F                  
STURGEON BAY   CLOUDY    28  25  88 NE6       30.28  WCI  22          
GREEN BAY      CLOUDY    29  21  72 NE9       30.28S WCI  20          
MANITOWOC      CLOUDY    31  28  89 NE6       30.28F WCI  25          
APPLETON       CLOUDY    28  18  64 E9        30.21F WCI  20          
CLINTONVILLE   CLOUDY    27  17  66 NE5       30.25F WCI  22          
OSHKOSH        CLOUDY    28  24  85 NE5       30.24R FOG     WCI  23  
$$
 
WIZ032>034-041-042-053>061-230900-
SOUTHWEST WISCONSIN
  
CITY           SKY/WX    TMP DP  RH WIND       PRES   REMARKS
LA CROSSE      CLOUDY    31  27  85 CALM      30.16F FOG              
SPARTA         FLURRIES  31  21  68 CALM      30.17F                  
VIROQUA        CLOUDY    29  24  81 E10       30.12F WCI  20          
BOSCOBEL       CLOUDY    32  23  69 NE7       30.15F WCI  26          
PRAIRIE DU CHI CLOUDY    32  24  71 E9        30.12F WCI  24          
PLATTEVILLE    CLOUDY    32  29  90 E14       30.13F WCI  22          
$$

WIZ056-057-062-063-064-067-068-230900-
SOUTH CENTRAL WISCONSIN
  
CITY           SKY/WX    TMP DP  RH WIND       PRES   REMARKS
REEDSBURG      CLOUDY    29  21  73 E5        30.19S WCI  24          
BARABOO/DELLS  CLOUDY    29  22  75 NE5       30.19F WCI  24          
LONE ROCK      CLOUDY    32  24  72 E10       30.17F WCI  24          
MINERAL POINT  FLURRIES  32  30  93 E12       30.12F WCI  23          
MADISON        CLOUDY    31  24  75 E6        30.18S WCI  25          
MIDDLETON      CLOUDY    32  27  80 NE6       30.18S WCI  26          
WATERTOWN      CLOUDY    32  28  84 E10G16    30.17F WCI  23          
MONROE         CLOUDY    32  26  80 MISG      30.12F                  
JANESVILLE     CLOUDY    34  30  86 E7        30.15F WCI  28          
$$
 
WIZ051-052-058>065-066-070>072-230900-
SOUTHEAST WISCONSIN
  
CITY           SKY/WX    TMP DP  RH WIND       PRES   REMARKS
MILWAUKEE      CLOUDY    35  28  75 E10       30.22F WCI  27          
WAUKESHA       CLOUDY    32  27  80 E10       30.19F WCI  24          
MILWAUKEE/TIMM CLOUDY    32  27  80 E8        30.22F WCI  25          
RACINE         CLOUDY    35  29  78 SE9       30.23F WCI  28          
KENOSHA        CLOUDY    36  30  79 E12       30.19F WCI  28          
FOND DU LAC    CLOUDY    32  23  69 E5        30.22R WCI  27          
SHEBOYGAN      CLOUDY    31  27  85 E8        30.24F WCI  23          
WEST BEND      CLOUDY    32  28  86 E5        30.23R WCI  27          
JUNEAU         CLOUDY    31  25  79 E12       30.19F WCI  22          
$$

LSZ147-162-230900-
LAKE SUPERIOR
  
STATION/POSITION TIME  TEMP    WIND        PRES    WAVE
                       AIR SEA DIR/SP/G            HT/PER
                 (UTC) (F)     (DEG/KT/KT) (MB)    (FT/S)
DEVILS ISLAND    0800   28     100/  8/ 10 1025.2F
SAXON HARBOR     0730   26        CALM     1023.7S
$$
 
LMZ867-665-643>646-230900-
LAKE MICHIGAN
  
STATION/POSITION TIME  TEMP    WIND        PRES    WAVE
                       AIR SEA DIR/SP/G            HT/PER
                 (UTC) (F)     (DEG/KT/KT) (MB)    (FT/S)
CHAMBERS ISLAND  0740   22     100/  2/  3 1025.7R
NORTHPORT PIER   0803   30      90/  4/  5 1026.4
KEWAUNEE LAKESHO 0748   32      60/  6/  8 1024.4F
SHEBOYGAN LAKESH 0800   33     100/ 12/ 13 1025.0F
PORT WASHINGTON  0730   34      90/  8/ 10 1025.4F
MILWAUKEE LAKESH 0750   34      90/  3/  6   N/A
KENOSHA   LAKESH 0800   35     110/ 12/ 13 1022.7
$$

TC  - TEMPERATURE IN CELSIUS
VSB - VISIBILITY IN STATUTE MILES
WCI - WIND CHILL INDEX
HX  - HEAT INDEX